Weather History for Pisco, Peru

Change the Weather History Date:

Monday, November 11, 2013

  Actual Average Record
Temperature  
Mean Temperature 62 °F -  
Max Temperature 70 °F 75 °F - ()
Min Temperature 53 °F 61 °F - ()
Degree Days  
Heating Degree Days 4    
Growing Degree Days 12 (Base 50)    
Moisture  
Dew Point 58 °F    
Average Humidity 83    
Maximum Humidity 94    
Minimum Humidity 45    
Precipitation  
Precipitation 0.00 in 0.00 in - ()
Sea Level Pressure  
Sea Level Pressure 29.91 in    
Wind  
Wind Speed 5 mph ()    
Max Wind Speed 12 mph    
Max Gust Speed -    
Visibility 3.5 miles    
Events      
T = Trace of Precipitation, MM = Missing Value Source: Averaged Metar Reports

Daily Weather History Graph

Daily Weather History Graph

Search for Another Location

Airport:

Trip Planner

Search our weather history database for the weather conditions in past years. The results will help you decide how hot, cold, wet, or windy it might be!

Date:

Astronomy

Nov. 11, 2013 Rise Set
Actual Time 5:27 AM PET 6:10 PM PET
Civil Twilight 5:05 AM PET 6:32 PM PET
Nautical Twilight 4:38 AM PET 6:59 PM PET
Astronomical Twilight 4:11 AM PET 7:26 PM PET
Moon 1:13 PM PET (11/11) 12:57 AM PET (11/11)
Length of Visible Light 13h 27m
Length of Day
12h 42m
Waxing Gibbous, 66% of the Moon is Illuminated
Nov 11
Waxing Gibbous
Nov 17
Full
Nov 25
Last Quarter
Dec 2
New
Dec 9
First Quarter

Hourly Weather History & Observations

Time (PET) Temp. Dew Point Humidity Pressure Visibility Wind Dir Wind Speed Gust Speed Precip Events Conditions
12:00 AM 60.8 °F 59.0 °F 94% 29.92 in - SSW 8.1 mph - N/A   Clear
1:00 AM 61 °F 58 °F 86% 29.88 in 6 mi East 3.5 mph - -   Partly Cloudy
1:00 AM 60.8 °F 57.2 °F 88% 29.89 in 5.0 mi East 3.5 mph - N/A   Unknown
2:00 AM 60.8 °F 57.2 °F 88% 29.89 in 5.0 mi ENE 4.6 mph - N/A   Unknown
3:00 AM 59.0 °F 37.4 °F 45% 29.86 in 5.0 mi ENE 3.5 mph - N/A   Unknown
4:00 AM 59 °F 56 °F 85% 29.86 in 4 mi ENE 3.5 mph - -   Partly Cloudy
4:00 AM 59.0 °F 55.4 °F 88% 29.89 in 4.3 mi ENE 3.5 mph - N/A   Unknown
5:00 AM 57.2 °F 55.4 °F 94% 29.89 in 3.7 mi East 4.6 mph - N/A   Partly Cloudy
6:00 AM 57.2 °F 51.8 °F 82% 29.92 in 2.5 mi Variable 2.3 mph - N/A   Scattered Clouds
6:16 AM 57.2 °F 51.8 °F 82% 29.92 in 2.5 mi ENE 4.6 mph - N/A   Overcast
7:00 AM 57 °F 54 °F 86% 29.92 in 1 mi ENE 3.5 mph - -   Mist
7:00 AM 57.2 °F 53.6 °F 88% 29.92 in 1.2 mi ENE 3.5 mph - N/A   Overcast
7:10 AM 60.8 °F 57.2 °F 88% 29.95 in 2.5 mi North 3.5 mph - N/A   Mostly Cloudy
7:35 AM 62.6 °F 59.0 °F 88% 29.95 in 3.1 mi NNW 3.5 mph - N/A   Mostly Cloudy
8:00 AM 62.6 °F 59.0 °F 88% 29.95 in 3.1 mi NNW 8.1 mph - N/A   Mostly Cloudy
8:20 AM 64.4 °F 59.0 °F 83% 29.95 in - North - - N/A   Scattered Clouds
9:00 AM 66.2 °F 59.0 °F 78% 29.95 in 2.5 mi NNW 9.2 mph - N/A   Mostly Cloudy
10:00 AM 66 °F 59 °F 72% 29.94 in 2 mi NW 9.2 mph - -   Mist
10:00 AM 66.2 °F 59.0 °F 78% 29.95 in 2.5 mi NW 9.2 mph - N/A   Mostly Cloudy
10:20 AM 64.4 °F 59.0 °F 83% 29.95 in 3.1 mi WNW 9.2 mph - N/A   Partly Cloudy
11:00 AM 66.2 °F 60.8 °F 83% 29.95 in 2.8 mi WNW 9.2 mph - N/A   Mostly Cloudy
12:00 PM 66.2 °F 59.0 °F 78% 29.95 in 2.8 mi WNW 9.2 mph - N/A   Haze
1:00 PM 68.0 °F 59.0 °F 73% 29.92 in 2.8 mi WNW 11.5 mph - N/A   Haze
2:00 PM 69.8 °F 60.8 °F 73% 29.89 in 3.1 mi NNW 9.2 mph - N/A   Haze
3:00 PM 68.0 °F 60.8 °F 78% 29.89 in 3.1 mi NNW 11.5 mph - N/A   Haze
4:00 PM 67 °F 61 °F 76% 29.86 in 3 mi NNW 10.4 mph - -   Mist
4:00 PM 66.2 °F 60.8 °F 83% 29.86 in 3.1 mi NNW 10.4 mph - N/A   Partly Cloudy
5:00 PM 66.2 °F 60.8 °F 83% 29.86 in 3.1 mi NNW 8.1 mph - N/A   Partly Cloudy
6:00 PM 64.4 °F 60.8 °F 88% 29.86 in 3.1 mi NNW 6.9 mph - N/A   Partly Cloudy
7:00 PM 63 °F 59 °F 84% 29.88 in 4 mi NNW 4.6 mph - -   Mist
7:00 PM 62.6 °F 59.0 °F 88% 29.89 in 3.7 mi NNW 4.6 mph - N/A   Unknown
8:00 PM 62.6 °F 59.0 °F 88% 29.92 in 5.0 mi NNW 3.5 mph - N/A   Unknown
9:00 PM 62.6 °F 59.0 °F 88% 29.92 in 5.0 mi NNE 4.6 mph - N/A   Unknown
10:00 PM 62 °F 58 °F 84% 29.93 in 5 mi NE 3.5 mph - -   Mist
10:00 PM 62.6 °F 59.0 °F 88% 29.95 in 5.0 mi NE 3.5 mph - N/A   Unknown
11:00 PM 60.8 °F 57.2 °F 88% 29.92 in 4.3 mi Variable 2.3 mph - N/A   Unknown